Location: Kermapucano
(48.0667°N, 3.3000°W)
Time: 20:42:48
(UTC+00:00)

Cosmos 1939 Rocket - Pass Details

Date: 29 November 2020
Orbit: 532 x 584 km, 97.4° (Epoch: 27 January)

Event Time Altitude Azimuth Distance (km) Brightness Sun altitude
Rises 06:45:08 0° 19° (NNE) 2,776 6.4 -9.0°
Reaches altitude 10° 06:47:23 10° 27° (NNE) 1,882 5.6 -8.6°
Maximum altitude 06:51:15 40° 98° (E) 854 4.5 -8.0°
Drops below altitude 10° 06:55:08 10° 168° (SSE) 1,891 6.1 -7.4°
Sets 06:57:23 0° 176° (S) 2,790 6.8 -7.1°
